www.pogodaiklimat.ru

Погода и климат >> Архив погоды >> Филиппины >> Маасин


ПОГОДА в Маасине

  • Прогноз погоды в Маасине
  • Монитор погоды в Маасине

АРХИВ ПОГОДЫ в Маасине

Время (UTC), дата Ветер
(напр.,м/с)
 
Видим.   Явления Облачность Т
(С)
Тd
(С)
f
(%)
Тe
(С)
Тes
(С)
Комфортность P
(гПа)
Po
(гПа)
Тmin
(С)
Tmax
(С)
R
(мм)
R24
(мм)
S
(см)
12 11.07 С 1 20 км мгла {туман} 5/1 500 м
[Cu med, cong Ac As Ci fib]
+27.4 +24.8 86 +39 +39 очень
душно
1011.6 1003.4 +31.0
15 11.07 С 2 20 км зарница {туман} 9/3 360 м
[Cb cap Ac As]
+25.6 +23.4 88 +35 +35 очень
душно
1012.2 1004.0
18 11.07 С 1 20 км зарница {туман} 9/4 360 м
[Cb cap Ac As]
+25.4 +23.5 89 +34 +34 очень
душно
1010.2 1002.0
21 11.07 СЗ 3 20 км мгла {туман} 6/1 500 м
[Cu med, cong Ac As Ci fib]
+25.0 +23.6 92 +34 +34 очень
душно
1009.7 1001.5
00 12.07 штиль 0 25 км мгла {туман} 6/3 500 м
[Cu med, cong Ci fib]
+27.0 +25.4 91 +39 +46 очень
душно
1010.7 1002.5 +25.0
03 12.07 Ю 4 25 км мгла {туман} 9/4 500 м
[Cu med, cong Ac As]
+30.0 +26.8 83 +47 +50 опасность
перегрева
1010.7 1002.5
06 12.07 С 2 25 км осадки на расстоянии {туман} 9/5 360 м
[Cb cap Ac As]
+30.0 +26.1 80 +45 +49 опасность
перегрева
1008.7 1000.5
09 12.07 штиль 0 22 км в посл. час ливневой дождь {туман} 10/3 500 м
[Cu Sc Ac cuf Cs]
+27.0 +25.7 93 +40 +41 очень
душно
1009.1 1000.9 0.8
12 12.07 В 2 20 км слаб. дождь 10/3 500 м
[Cu Sc As op]
+25.0 +24.2 95 +34 +34 очень
душно
1009.6 1001.4 +30.0 3
15 12.07 С 2 20 км зарница {туман} 9/3 360 м
[Cb cap Ac As]
+25.6 +23.4 88 +35 +35 очень
душно
1012.2 1004.0
18 12.07 С 3 20 км зарница {дождь, туман} 6/3 360 м
[Cb cap Ac As]
+23.6 +22.8 95 +31 +31 очень
душно
1008.4 1000.2 1
21 12.07 С 3 20 км зарница {туман} 8/3 360 м
[Cb cap Ac trans]
+23.4 +22.9 97 +33 +33 очень
душно
1008.4 1000.2
00 13.07 С 1 22 км осадки на расстоянии {туман} 9/3 360 м
[Cb cap Ac As]
+26.0 +24.7 93 +37 +39 очень
душно
1010.1 1001.9 +23.4 5
03 13.07 Ю 3 22 км осадки на расстоянии {туман} 9/4 360 м
[Cb cap Ac As Cs]
+28.8 +25.1 80 +42 +48 опасность
перегрева
1009.2 1001.0
06 13.07 С 5 12 км слаб. дождь {туман} 10/5 500 м
[Cu Sc As op]
+25.0 +23.9 94 +34 +35 очень
душно
1008.0 999.8 40
09 13.07 штиль 0 18 км в посл. час ливневой дождь {гроза} 10/4 360 м
[Cb cap Ac As]
+24.6 +23.2 92 +33 +33 очень
душно
1008.2 1000.0 2
12 13.07 С 3 20 км мгла {гроза} 10/3 500 м
[Cu med, cong Ac As]
+24.2 +23.1 94 +32 +32 очень
душно
1010.1 1001.9 +28.8 2
15 13.07 С 4 20 км осадки на расстоянии {ливн. осадки, туман} 9/4 360 м
[Cb cap Ac As]
+24.0 +22.9 94 +32 +32 очень
душно
1009.8 1001.6 0.0
18 13.07 СЗ 1 20 км осадки на расстоянии {ливн. осадки, туман} 9/3 360 м
[Cb cap Ac As]
+23.8 +22.7 94 +31 +31 очень
душно
1008.2 1000.0 0.0
21 13.07 С 2 20 км мгла {туман} 9/3 500 м
[Cu med, cong Ac As]
+24.0 +22.9 94 +32 +32 очень
душно
1007.4 999.2
00 14.07 С 2 22 км мгла {туман} 9/1 500 м
[Cu med, cong Ac trans Cs]
+25.0 +23.6 92 +34 +38 очень
душно
1008.4 1000.2 +23.8 42
03 14.07 ЮЗ 1 22 км мгла {туман} 9/4 500 м
[Cu med, cong Ac trans Cs]
+28.2 +25.8 87 +42 +51 опасность
перегрева
1008.2 1000.0
06 14.07 ЮЗ 2 20 км мгла {туман} 9/3 360 м
[Cb cap Ac As]
+28.4 +25.2 83 +41 +46 опасность
перегрева
1006.4 998.2
09 14.07 С 1 20 км слаб. ливневой дождь {туман} 10/3 360 м
[Cb cap Ac As]
+27.0 +25.2 90 +39 +39 очень
душно
1006.4 998.2 0.0
12 14.07 С 3 20 км слаб. ливневой дождь {туман} 10/3 360 м
[Cb cap Ac As]
+25.0 +24.5 97 +35 +35 очень
душно
1008.2 1000.0 +28.4 0.0
15 14.07 С 2 20 км слаб. дождь 10/3 500 м
[Cu Sc As op]
+24.0 +23.5 97 +32 +32 очень
душно
1008.6 1000.4 12
18 14.07 З 2 20 км мгла {дождь, туман} 5/3 500 м
[Cu med, cong Ac trans Ci sp]
+23.8 +22.7 94 +31 +31 очень
душно
1006.6 998.4 12
21 14.07 С 1 20 км мгла {туман} 9/3 500 м
[Cu med, cong Ac As]
+24.0 +22.6 92 +31 +31 очень
душно
1006.2 998.0
00 15.07 СЗ 1 20 км осадки на расстоянии {туман} 10/3 360 м
[Cb cap Ac As]
+26.2 +24.6 91 +37 +39 очень
душно
1007.9 999.7 +23.4 12
03 15.07 ЮЗ 3 20 км осадки на расстоянии {туман} 10/4 360 м
[Cb cap Ac As]
+28.0 +24.8 83 +40 +43 очень
душно
1007.6 999.4
06 15.07 ЮЗ 5 20 км в посл. час ливневой дождь {туман} 10/6 360 м
[Cb cap Ac As]
+26.4 +24.5 89 +37 +38 очень
душно
1005.4 997.2 10
09 15.07 ЮЗ 5 20 км осадки на расстоянии {туман} 10/4 360 м
[Cb cap Ac As]
+27.0 +24.3 85 +38 +38 очень
душно
1005.4 997.2
12 15.07 З 3 20 км мгла {туман} 10/3 500 м
[Cu med, cong Ac As]
+26.4 +24.0 87 +37 +37 очень
душно
1007.1 998.9 +28.2
15 15.07 З 5 20 км мгла {туман} 10/3 500 м
[Cu med, cong Ac As]
+26.2 +24.0 88 +36 +36 очень
душно
1007.8 999.6
18 15.07 С 2 20 км мгла {туман} 10/4 500 м
[Cu med, cong Ac As]
+25.8 +23.9 89 +35 +35 очень
душно
1005.9 997.7
21 15.07 ЮЗ 4 20 км мгла {туман} 9/3 500 м
[Cu med, cong Ac As]
+26.0 +24.4 91 +36 +36 очень
душно
1006.0 997.8
00 16.07 ЮЗ 2 20 км слаб. дождь {туман} 10/4 500 м
[Cu med, cong Ac As]
+26.0 +24.7 93 +37 +38 очень
душно
1007.2 999.0 +25.0 10
03 16.07 З 4 20 км мгла {туман} 10/3 500 м
[Cu med, cong Ac As]
+28.5 +25.9 86 +43 +46 опасность
перегрева
1006.1 997.9
06 16.07 ЮЗ 6 20 км мгла {туман} 10/4 500 м
[Cu med, cong Ac As]
+29.0 +25.7 82 +43 +44 опасность
перегрева
1004.6 996.4
09 16.07 З 4 20 км мгла {туман} 10/3 500 м
[Cu med, cong Cs]
+28.0 +24.0 79 +39 +39 очень
душно
1004.5 996.3 0.2
12 16.07 ЮЗ 3 20 км мгла {туман} 9/3 500 м
[Cu med, cong Ac As]
+27.0 +25.7 93 +40 +40 очень
душно
1006.2 998.0 +29.0 0.2
15 16.07 ЮЗ 5 20 км в посл. час ливневой дождь {туман} 9/4 360 м
[Cb cap Ac As]
+26.6 +25.6 94 +39 +39 очень
душно
1007.0 998.8 2
18 16.07 ЮЗ 4 20 км мгла {туман} 9/3 360 м
[Cb cap Ac As]
+27.0 +24.3 85 +38 +38 очень
душно
1005.2 997.0 2
21 16.07 штиль 0 20 км мгла {туман} 9/3 500 м
[Cu med, cong Ac As]
+25.0 +23.6 92 +34 +34 очень
душно
1005.2 997.0 1
00 17.07 ЮЗ 4 20 км мгла {туман} 9/3 500 м
[Cu med, cong Ac trans Cs]
+26.5 +25.2 93 +38 +41 очень
душно
1006.2 998.0 +25.0 4
03 17.07 ЮЗ 4 20 км мгла {туман} 9/3 500 м
[Cu med, cong Ac cuf Cs]
+29.0 +26.4 86 +44 +50 опасность
перегрева
1006.2 998.0
06 17.07 ЮЗ 4 20 км мгла {туман} 9/3 500 м
[Cu med, cong Ac trans Ci sp]
+30.0 +26.8 83 +47 +51 опасность
перегрева
1005.2 997.0
09 17.07 ЮЗ 4 20 км мгла {туман} 9/3 500 м
[Cu med, cong Ac trans Ci sp]
+29.5 +26.3 83 +45 +45 опасность
перегрева
1005.2 997.0
12 17.07 ЮЗ 4 20 км мгла {туман} 9/1 500 м
[Cu med, cong Ac trans Cs]
+28.4 +25.8 86 +42 +42 опасность
перегрева
1007.2 999.0 +30.0
15 17.07 ЮЗ 4 20 км мгла {туман} 4/1 500 м
[Cu med, cong Ac trans Ci sp]
+27.6 +25.2 87 +40 +40 очень
душно
1008.1 999.9
18 17.07 ЮЗ 3 20 км мгла {туман} 4/1 500 м
[Cu med, cong Ac trans Ci fib]
+27.0 +24.9 88 +39 +39 очень
душно
1007.4 999.2
21 17.07 ЮЗ 4 20 км мгла {туман} 5/3 500 м
[Cu med, cong Ac trans Ci fib]
+26.6 +25.0 91 +38 +38 очень
душно
1007.7 999.5
00 18.07 ЮВ 4 20 км мгла {туман} 5/4 500 м
[Cu med, cong Ci fib]
+28.0 +26.7 93 +44 +47 опасность
перегрева
1008.2 1000.0 +26.0
03 18.07 ЮВ 5 20 км мгла {туман} 4/1 500 м
[Cu med, cong Ac trans Ci fib]
+31.0 +27.2 80 +49 +57 опасность
перегрева
1008.2 1000.0
06 18.07 ЮВ 2 20 км мгла {туман} 1/1 500 м
[Cu med, cong Ci fib]
+32.0 +28.0 79 +52 +66 опасность
перегрева
1006.8 998.6

 

Местоположение метеостанции Маасин (Филиппины): широта 10.13 долгота 124.83 высота над уровнем моря 72 м.

В архиве по умолчанию представлена погода в Маасине за последнюю неделю. Архивные данные за месяц целиком и за предыдущие месяцы, начиная с января 2011 года, Вы можете получить, выбрав интересующий диапазон дат из раскрывающегося списка и нажав кнопку "Ввод!".


*Определитесь, кто Вы:
робот инопланетянин человек

Внимание! Время в таблицах - всемирное. Для получения местного времени необходимо прибавить поправку, которая равна 8 ч.

Смотрите также архив погоды в соседних городах и на ближайших метеорологических станциях:

Погода в Серигао Сити (Филиппины) (82 км)
Погода в Мактане (Филиппины) (97 км)
Погода в Тагбиларане (Филиппины) (123 км)
Погода в Таклобане (Филиппины) (126 км)
Погода в Гуиуане (Филиппины) (140 км)
Погода в Бутуане (Филиппины) (153 км)
Погода в Боронган Сити (Филиппины) (181 км)
Погода в Катбалогане (Филиппины) (184 км)
Погода в Думагете (Филиппины) (191 км)
Погода в Кагаян-де-Оро (Филиппины) (198 км)

Пояснения к столбцам:

Ветер - указаны скорость ветра в м/с - средняя за 10 мин, порывы в срок и между сроками (в фигурных скобках) и направление, откуда дует ветер: С - северный, СВ - северо-восточный, В - восточный, ЮВ - юго-восточный, Ю - южный, ЮЗ - юго-западный, З - западный, СЗ - северо-западный.
Видимость - горизонтальная дальность видимости в метрах или километрах. При видимости от 1 до 10 км при отсутствии осадков обычно наблюдается дымка, при ухудшении видимости до 1 км и менее - туман. В сухую погоду видимость может ухудшаться дымом, пылью или мглою.
Явления - указаны атмосферные явления, наблюдавшиеся в срок или в последний час перед сроком; фигурными скобками обозначены явления, наблюдавшиеся между сроками (за 1-3 часа до срока); квадратными скобками обозначены град или гололедные отложения с указанием их диаметра в мм.
Облачность - указаны через наклонную черту общая и нижняя облачность в баллах и высота нижней границы облаков в метрах; квадратными скобками обозначены формы облаков: Ci - перистые, Cs - перисто-слоистые, Cc - перисто-кучевые, Ac - высококучевые, As - высокослоистые, Sc - слоисто-кучевые, Ns - слоисто-дождевые, Cu - кучевые, Cb - кучево-дождевые. Подробнее классификацию облаков см. в Атласе облаков (PDF).
T - Температура воздуха - температура, измеренная на высоте 2 м над землей.
Td - Температура точки росы - температура, при понижении до которой содержащийся в воздухе водяной пар достигнет насыщения.
f - Относительная влажность воздуха - влажноcть воздуха, измеренная на высоте 2 м над землей.
Te - Эффективная температура - температура, которую ощущает одетый по сезону человек в тени. Характеристика душности погоды. При расчете учитывается влияние влажности воздуха и скорости ветра на теплоощущения человека.
Tes - Эффективная температура на солнце - температура, которую ощущает человек, с поправкой на солнечный нагрев. Характеристика знойности погоды. Зависит от высоты солнца над горизонтом, облачности и скорости ветра. Ночью, в пасмурную погоду, а также при ветре 12 м/с и более поправка равна нулю.
P - Атмосферное давление - приведенное к уровню моря атмосферное давление.
Po - Атмосферное давление - измеренное на уровне метеостанции атмосферное давление.
Tmin - Минимальная температура - минимум температуры воздуха на высоте 2 м над землей.
Tmax - Максимальная температура - максимум температуры воздуха на высоте 2 м над землей.
R - Количество осадков - Количество выпавших осадков за период времени, мм. При наведении курсора мыши на число - период времени, за который выпало указанное количество осадков.
R24 - Количество осадков - Количество выпавших осадков за 24 часа, мм.
S - Снежный покров - Высота снежного покрова, см. При наведении курсора мыши на число - состояние снежного покрова и степень покрытия местности в баллах.